IZ1GCT Weather Reports


Display with metric or nautical units.
time (UTC)temp
F
wind
direction
speed
MPH
gust
MPH
rain 1hr
in
rain 24hr
in
rain mn
in
humidity
%
barometer
mb
20260831150912 90 296 16.0 20.0 0.00 0.00 0.00 19 1017.6
20260831150413 91 315 14.0 17.0 0.00 0.00 0.00 12 1017.7
20260831145912 90 307 18.0 29.0 0.00 0.00 0.00 13 1017.6
20260831145412 91 270 16.0 23.0 0.00 0.00 0.00 13 1017.7
20260831144913 91 350 14.0 17.0 0.00 0.00 0.00 13 1017.7
20260831144413 91 350 14.0 20.0 0.00 0.00 0.00 13 1017.7
20260831143912 91 284 16.0 22.0 0.00 0.00 0.00 13 1017.5
20260831143412 91 2 13.0 21.0 0.00 0.00 0.00 13 1017.5
20260831142913 91 29 10.0 13.0 0.00 0.00 0.00 13 1017.5
20260831142412 91 315 16.0 21.0 0.00 0.00 0.00 13 1017.6
20260831141911 91 344 12.0 17.0 0.00 0.00 0.00 13 1017.5
20260831141413 91 271 10.0 17.0 0.00 0.00 0.00 13 1017.6
20260831140912 91 315 14.0 20.0 0.00 0.00 0.00 13 1017.5
20260831140412 92 278 17.0 25.0 0.00 0.00 0.00 13 1017.4
20260831135913 91 307 13.0 22.0 0.00 0.00 0.00 13 1017.5
20260831135412 91 315 10.0 16.0 0.00 0.00 0.00 13 1017.5
20260831134912 91 332 12.0 16.0 0.00 0.00 0.00 13 1017.6
20260831134413 91 286 18.0 23.0 0.00 0.00 0.00 13 1017.5
20260831133913 91 315 14.0 17.0 0.00 0.00 0.00 13 1017.6
20260831133412 91 247 9.0 18.0 0.00 0.00 0.00 13 1017.6
20260831132913 91 315 14.0 18.0 0.00 0.00 0.00 13 1017.6
20260831132413 91 29 8.0 17.0 0.00 0.00 0.00 13 1017.6
20260831131912 91 284 10.0 18.0 0.00 0.00 0.00 13 1017.9
20260831131411 90 335 17.0 21.0 0.00 0.00 0.00 13 1017.8
20260831130913 90 39 18.0 23.0 0.00 0.00 0.00 13 1017.9
20260831130412 90 331 14.0 20.0 0.00 0.00 0.00 13 1017.8
20260831125911 90 315 20.0 23.0 0.00 0.00 0.00 13 1017.9
20260831125412 90 312 20.0 29.0 0.00 0.00 0.00 13 1017.9
20260831124913 90 0 14.0 20.0 0.00 0.00 0.00 13 1017.9
20260831124412 91 303 17.0 21.0 0.00 0.00 0.00 13 1017.9
20260831123912 90 210 14.0 22.0 0.00 0.00 0.00 13 1018.0
20260831123413 90 315 15.0 18.0 0.00 0.00 0.00 13 1018.0
20260831122913 90 313 18.0 23.0 0.00 0.00 0.00 13 1018.0
20260831122412 90 285 16.0 23.0 0.00 0.00 0.00 13 1018.1
20260831121911 90 309 15.0 21.0 0.00 0.00 0.00 20 1018.1
20260831121413 89 315 12.0 17.0 0.00 0.00 0.00 20 1018.1
20260831120913 89 334 15.0 23.0 0.00 0.00 0.00 16 1018.1
20260831120412 89 270 20.0 25.0 0.00 0.00 0.00 20 1018.2
20260831115913 89 315 15.0 17.0 0.00 0.00 0.00 13 1018.2
20260831115412 89 0 14.0 20.0 0.00 0.00 0.00 20 1018.1
20260831114913 89 351 12.0 21.0 0.00 0.00 0.00 20 1018.2
20260831114412 90 315 15.0 22.0 0.00 0.00 0.00 20 1018.4
20260831113912 89 324 16.0 26.0 0.00 0.00 0.00 13 1018.2
20260831113413 89 303 13.0 23.0 0.00 0.00 0.00 14 1018.2
20260831112913 89 0 12.0 18.0 0.00 0.00 0.00 20 1018.3
20260831112412 90 336 16.0 23.0 0.00 0.00 0.00 13 1018.3
20260831111913 89 297 20.0 24.0 0.00 0.00 0.00 13 1018.4
20260831111412 90 315 14.0 17.0 0.00 0.00 0.00 16 1018.5
20260831110911 90 270 14.0 18.0 0.00 0.00 0.00 20 1018.5
20260831110412 90 304 8.0 16.0 0.00 0.00 0.00 18 1018.4
20260831105911 89 270 22.0 25.0 0.00 0.00 0.00 13 1018.6
20260831105412 90 322 18.0 21.0 0.00 0.00 0.00 13 1018.4
20260831104913 89 315 15.0 20.0 0.00 0.00 0.00 13 1018.5
20260831104412 89 299 10.0 15.0 0.00 0.00 0.00 13 1018.5
20260831103912 89 325 17.0 22.0 0.00 0.00 0.00 13 1018.5
20260831103411 89 315 17.0 21.0 0.00 0.00 0.00 13 1018.5
20260831102913 89 315 18.0 23.0 0.00 0.00 0.00 13 1018.6
20260831102412 89 0 18.0 23.0 0.00 0.00 0.00 15 1018.7
20260831101911 88 264 9.0 15.0 0.00 0.00 0.00 20 1018.7
20260831101412 89 315 21.0 30.0 0.00 0.00 0.00 20 1018.9
20260831100913 89 135 13.0 17.0 0.00 0.00 0.00 20 1018.8
20260831100413 89 135 9.0 13.0 0.00 0.00 0.00 20 1019.0
20260831095913 88 135 5.0 7.0 0.00 0.00 0.00 21 1018.9
20260831095412 88 135 15.0 21.0 0.00 0.00 0.00 21 1019.2
20260831094913 88 135 12.0 24.0 0.00 0.00 0.00 21 1019.2
20260831094413 88 135 5.0 14.0 0.00 0.00 0.00 25 1019.4
20260831093912 87 135 10.0 14.0 0.00 0.00 0.00 25 1019.5
20260831093413 87 135 6.0 8.0 0.00 0.00 0.00 27 1019.4
20260831092912 87 135 8.0 15.0 0.00 0.00 0.00 29 1019.6
20260831092411 86 135 10.0 13.0 0.00 0.00 0.00 27 1019.6
20260831091913 86 135 8.0 13.0 0.00 0.00 0.00 30 1019.6
20260831091412 85 135 13.0 17.0 0.00 0.00 0.00 30 1019.6
20260831090912 85 135 10.0 15.0 0.00 0.00 0.00 31 1019.6
20260831090413 85 135 12.0 17.0 0.00 0.00 0.00 33 1019.6
20260831085912 84 135 1.0 2.0 0.00 0.00 0.00 40 1019.8
20260831085412 83 135 3.0 3.0 0.00 0.00 0.00 39 1019.9
20260831084913 82 135 5.0 6.0 0.00 0.00 0.00 40 1019.9
20260831084411 83 135 6.0 7.0 0.00 0.00 0.00 35 1020.0
20260831083913 85 135 2.0 6.0 0.00 0.00 0.00 34 1020.0
20260831083412 86 135 1.0 2.0 0.00 0.00 0.00 36 1020.0
20260831082911 84 135 0.0 1.0 0.00 0.00 0.00 37 1019.9
20260831082413 82 135 0.0 2.0 0.00 0.00 0.00 42 1020.1
20260831081912 80 135 0.0 1.0 0.00 0.00 0.00 46 1020.0
20260831081411 78 135 0.0 1.0 0.00 0.00 0.00 48 1020.1
20260831080912 77 135 1.0 2.0 0.00 0.00 0.00 51 1020.1
20260831080413 76 68 2.0 3.0 0.00 0.00 0.00 52 1020.2
20260831075912 77 135 0.0 0.0 0.00 0.00 0.00 51 1020.2
20260831075412 77 135 0.0 0.0 0.00 0.00 0.00 50 1020.2
20260831074911 78 135 1.0 1.0 0.00 0.00 0.00 46 1020.2
20260831074413 80 135 2.0 3.0 0.00 0.00 0.00 43 1020.1
20260831073912 81 135 1.0 1.0 0.00 0.00 0.00 44 1020.1
20260831073411 79 135 0.0 1.0 0.00 0.00 0.00 48 1020.0
20260831072912 77 135 1.0 1.0 0.00 0.00 0.00 48 1020.0
20260831072412 76 158 2.0 5.0 0.00 0.00 0.00 49 1020.0
20260831071911 77 140 5.0 8.0 0.00 0.00 0.00 47 1020.1
20260831071412 77 158 2.0 3.0 0.00 0.00 0.00 49 1020.1
20260831070912 77 135 3.0 5.0 0.00 0.00 0.00 50 1020.1
20260831070412 78 135 1.0 2.0 0.00 0.00 0.00 51 1020.1
20260831065913 76 135 1.0 2.0 0.00 0.00 0.00 55 1020.1
20260831065412 73 135 0.0 2.0 0.00 0.00 0.00 60 1020.2
20260831064912 71 135 1.0 3.0 0.00 0.00 0.00 66 1020.3
20260831064412 68 135 1.0 2.0 0.00 0.00 0.00 67 1020.2
20260831063913 68 143 1.0 2.0 0.00 0.00 0.00 66 1020.4
20260831063412 69 135 1.0 3.0 0.00 0.00 0.00 66 1020.5
20260831062912 68 158 0.0 2.0 0.00 0.00 0.00 65 1020.4
20260831062412 68 135 0.0 1.0 0.00 0.00 0.00 70 1020.4
20260831061913 67 135 1.0 1.0 0.00 0.00 0.00 70 1020.3
20260831061412 66 145 2.0 6.0 0.00 0.00 0.00 70 1020.2
20260831060912 66 135 2.0 3.0 0.00 0.00 0.00 70 1020.2
20260831060412 66 158 5.0 6.0 0.00 0.00 0.00 69 1020.2
20260831055912 66 158 3.0 5.0 0.00 0.00 0.00 69 1020.2
20260831055412 66 142 3.0 6.0 0.00 0.00 0.00 70 1020.2
20260831054913 66 158 1.0 2.0 0.00 0.00 0.00 71 1020.4
20260831054412 66 154 0.0 1.0 0.00 0.00 0.00 75 1020.4
20260831053913 63 148 1.0 1.0 0.00 0.00 0.00 80 1020.2
20260831053412 62 124 1.0 1.0 0.00 0.00 0.00 80 1020.1
20260831052911 62 135 0.0 1.0 0.00 0.00 0.00 80 1020.0
20260831052413 62 135 2.0 3.0 0.00 0.00 0.00 81 1019.9
20260831051912 61 150 0.0 3.0 0.00 0.00 0.00 82 1019.8
20260831051411 61 158 1.0 2.0 0.00 0.00 0.00 82 1019.7
20260831050913 61 135 0.0 0.0 0.00 0.00 0.00 82 1019.7
20260831050412 61 154 1.0 3.0 0.00 0.00 0.00 82 1019.7
20260831045912 61 158 0.0 1.0 0.00 0.00 0.00 82 1019.7
20260831045411 61 135 1.0 2.0 0.00 0.00 0.00 82 1019.7
20260831044912 61 135 0.0 3.0 0.00 0.00 0.00 82 1019.5
20260831044413 61 142 1.0 3.0 0.00 0.00 0.00 82 1019.4
20260831043912 61 157 0.0 1.0 0.00 0.00 0.00 82 1019.4
20260831043412 61 122 0.0 2.0 0.00 0.00 0.00 82 1019.4
20260831042911 61 135 2.0 3.0 0.00 0.00 0.00 82 1019.5
20260831042412 61 137 0.0 1.0 0.00 0.00 0.00 82 1019.6
20260831041912 61 158 0.0 1.0 0.00 0.00 0.00 82 1019.5
20260831041411 62 135 2.0 3.0 0.00 0.00 0.00 82 1019.5
20260831040913 62 149 1.0 3.0 0.00 0.00 0.00 82 1019.4
20260831040412 61 135 3.0 5.0 0.00 0.00 0.00 82 1019.4
20260831035415 62 135 1.0 2.0 0.00 0.00 0.00 82 1019.5
20260831034917 62 158 0.0 1.0 0.00 0.00 0.00 81 1019.6
20260831034416 62 119 1.0 2.0 0.00 0.00 0.00 81 1019.5
20260831033916 62 148 3.0 3.0 0.00 0.00 0.00 81 1019.6
20260831033416 62 140 0.0 1.0 0.00 0.00 0.00 81 1019.8
20260831032917 62 158 1.0 3.0 0.00 0.00 0.00 81 1019.7
20260831032416 62 158 1.0 2.0 0.00 0.00 0.00 80 1019.6
20260831031916 63 135 0.0 0.0 0.00 0.00 0.00 80 1019.7
20260831031415 63 144 1.0 2.0 0.00 0.00 0.00 80 1019.7
20260831030917 63 158 6.0 7.0 0.00 0.00 0.00 79 1019.8
20260831030416 64 135 1.0 1.0 0.00 0.00 0.00 74 1019.7
20260831025915 64 151 1.0 3.0 0.00 0.00 0.00 74 1019.7
20260831025415 64 135 1.0 2.0 0.00 0.00 0.00 73 1019.7
20260831024917 64 158 3.0 5.0 0.00 0.00 0.00 73 1019.6
20260831024415 64 135 1.0 2.0 0.00 0.00 0.00 72 1019.7
20260831023917 65 158 1.0 3.0 0.00 0.00 0.00 72 1019.6
20260831023416 65 139 1.0 3.0 0.00 0.00 0.00 73 1019.7
20260831022915 65 158 5.0 6.0 0.00 0.00 0.00 73 1019.7
20260831022417 64 158 0.0 1.0 0.00 0.00 0.00 73 1019.9
20260831021916 64 158 1.0 2.0 0.00 0.00 0.00 73 1019.8
20260831021416 65 158 0.0 1.0 0.00 0.00 0.00 73 1019.8
20260831020915 65 158 3.0 6.0 0.00 0.00 0.00 73 1019.8
20260831020416 65 153 1.0 3.0 0.00 0.00 0.00 73 1019.9
20260831015916 65 136 1.0 2.0 0.00 0.00 0.00 72 1020.0
20260831015415 66 135 1.0 1.0 0.00 0.00 0.00 71 1020.0
20260831014916 66 158 1.0 2.0 0.00 0.00 0.00 71 1020.0
20260831014416 66 135 2.0 7.0 0.00 0.00 0.00 74 1020.0
20260831013915 64 135 2.0 5.0 0.00 0.00 0.00 77 1020.0
20260831013416 64 135 1.0 3.0 0.00 0.00 0.00 77 1020.0
20260831012916 64 126 0.0 1.0 0.00 0.00 0.00 77 1019.8
20260831012416 64 158 3.0 3.0 0.00 0.00 0.00 78 1019.9
20260831011917 64 158 3.0 3.0 0.00 0.00 0.00 77 1019.9
20260831011416 64 129 0.0 2.0 0.00 0.00 0.00 77 1020.0
20260831010915 64 158 0.0 1.0 0.00 0.00 0.00 76 1019.9
20260831010415 65 135 0.0 1.0 0.00 0.00 0.00 76 1020.0
20260831005916 65 158 3.0 3.0 0.00 0.00 0.00 77 1019.9
20260831005415 64 135 3.0 5.0 0.00 0.00 0.00 78 1020.0
20260831004915 64 137 2.0 3.0 0.00 0.00 0.00 78 1020.0
20260831004416 64 158 0.0 1.0 0.00 0.00 0.00 77 1020.1
20260831003916 64 150 0.0 1.0 0.00 0.00 0.00 77 1020.1
20260831003416 65 135 1.0 1.0 0.00 0.00 0.00 76 1019.9
20260831002915 65 158 0.0 1.0 0.00 0.00 0.00 75 1020.0
20260831002417 65 158 0.0 1.0 0.00 0.00 0.00 75 1020.0
20260831001916 66 158 2.0 3.0 0.00 0.00 0.00 74 1020.1
20260831001415 66 142 1.0 2.0 0.00 0.00 0.00 73 1020.2
20260831000917 66 135 0.0 1.0 0.00 0.00 0.00 73 1020.1
20260831000417 66 158 2.0 3.0 0.00 0.00 0.00 72 1020.0
20260830235917 67 158 3.0 5.0 0.00 0.00 0.00 71 1020.1
20260830235416 67 135 0.0 1.0 0.00 0.00 0.00 71 1020.1
20260830234917 68 158 0.0 1.0 0.00 0.00 0.00 70 1020.2
20260830234416 68 115 2.0 3.0 0.00 0.00 0.00 71 1020.0
20260830233915 68 127 1.0 1.0 0.00 0.00 0.00 70 1020.0
20260830233415 69 155 5.0 8.0 0.00 0.00 0.00 70 1020.1
20260830232916 68 135 5.0 6.0 0.00 0.00 0.00 70 1020.0
20260830232415 69 158 5.0 6.0 0.00 0.00 0.00 70 1020.1
20260830231916 70 158 5.0 7.0 0.00 0.00 0.00 67 1020.2
20260830231416 70 154 1.0 2.0 0.00 0.00 0.00 66 1020.2
20260830230915 71 135 1.0 2.0 0.00 0.00 0.00 66 1020.4
20260830230415 71 146 1.0 3.0 0.00 0.00 0.00 65 1020.2
20260830225916 71 158 3.0 5.0 0.00 0.00 0.00 65 1020.4
20260830225416 71 140 1.0 2.0 0.00 0.00 0.00 65 1020.4
20260830224915 70 135 3.0 5.0 0.00 0.00 0.00 65 1020.4
20260830224416 71 148 2.0 3.0 0.00 0.00 0.00 66 1020.4
20260830223915 70 135 2.0 3.0 0.00 0.00 0.00 66 1020.3
20260830223417 70 135 3.0 5.0 0.00 0.00 0.00 67 1020.4
20260830222915 70 147 1.0 1.0 0.00 0.00 0.00 69 1020.4
20260830222417 69 140 3.0 6.0 0.00 0.00 0.00 70 1020.4
20260830221915 69 151 1.0 5.0 0.00 0.00 0.00 70 1020.4
20260830221417 69 135 1.0 3.0 0.00 0.00 0.00 71 1020.4
20260830220916 69 158 3.0 5.0 0.00 0.00 0.00 70 1020.4
20260830220416 69 135 1.0 2.0 0.00 0.00 0.00 70 1020.3
20260830215915 70 135 0.0 1.0 0.00 0.00 0.00 69 1020.4
20260830215417 70 135 0.0 0.0 0.00 0.00 0.00 68 1020.3
20260830214916 70 135 0.0 1.0 0.00 0.00 0.00 68 1020.3
20260830214415 70 135 1.0 2.0 0.00 0.00 0.00 68 1020.3
20260830213915 70 135 1.0 6.0 0.00 0.00 0.00 69 1020.3
20260830213416 70 151 3.0 6.0 0.00 0.00 0.00 70 1020.3
20260830212915 69 135 5.0 7.0 0.00 0.00 0.00 70 1020.3
20260830212415 69 136 3.0 3.0 0.00 0.00 0.00 71 1020.2
20260830211916 69 148 3.0 5.0 0.00 0.00 0.00 71 1020.1
20260830211416 69 152 3.0 3.0 0.00 0.00 0.00 70 1020.3
20260830210915 69 135 0.0 0.0 0.00 0.00 0.00 70 1020.1
20260830210417 70 135 0.0 0.0 0.00 0.00 0.00 69 1020.2
20260830205916 70 158 3.0 5.0 0.00 0.00 0.00 69 1020.2
20260830205415 70 142 3.0 5.0 0.00 0.00 0.00 69 1020.1
20260830204917 70 151 2.0 3.0 0.00 0.00 0.00 69 1020.1
20260830204416 70 140 0.0 1.0 0.00 0.00 0.00 69 1020.1
20260830203915 70 135 3.0 3.0 0.00 0.00 0.00 70 1020.1
20260830203415 70 152 2.0 3.0 0.00 0.00 0.00 69 1020.1
20260830202916 70 158 2.0 3.0 0.00 0.00 0.00 69 1020.2
20260830202415 70 158 2.0 3.0 0.00 0.00 0.00 69 1020.1
20260830201915 70 137 1.0 2.0 0.00 0.00 0.00 68 1020.1
20260830201416 71 135 1.0 2.0 0.00 0.00 0.00 68 1020.1
20260830200916 71 158 0.0 1.0 0.00 0.00 0.00 67 1019.9
20260830200415 71 158 0.0 1.0 0.00 0.00 0.00 67 1019.9
20260830195916 71 158 2.0 2.0 0.00 0.00 0.00 66 1019.9
20260830195415 71 158 2.0 3.0 0.00 0.00 0.00 67 1019.9
20260830194916 71 158 2.0 3.0 0.00 0.00 0.00 66 1019.9
20260830194415 71 158 2.0 3.0 0.00 0.00 0.00 66 1019.9
20260830193915 72 137 0.0 1.0 0.00 0.00 0.00 66 1019.9
20260830193416 72 158 0.0 0.0 0.00 0.00 0.00 65 1019.8
20260830192915 72 158 0.0 1.0 0.00 0.00 0.00 65 1019.7
20260830192415 72 158 0.0 0.0 0.00 0.00 0.00 65 1019.7
20260830191916 73 158 2.0 3.0 0.00 0.00 0.00 62 1019.6
20260830191415 73 135 0.0 0.0 0.00 0.00 0.00 61 1019.7
20260830190915 73 141 0.0 0.0 0.00 0.00 0.00 61 1019.6
20260830190415 73 158 0.0 1.0 0.00 0.00 0.00 60 1019.5
20260830185915 74 158 1.0 2.0 0.00 0.00 0.00 60 1019.4
20260830185415 74 148 0.0 1.0 0.00 0.00 0.00 60 1019.3
20260830184916 74 158 2.0 3.0 0.00 0.00 0.00 59 1019.3
20260830184415 75 158 0.0 1.0 0.00 0.00 0.00 58 1019.2
20260830183915 75 158 2.0 3.0 0.00 0.00 0.00 58 1019.2
20260830183416 76 158 1.0 3.0 0.00 0.00 0.00 57 1019.1
20260830182916 76 158 0.0 0.0 0.00 0.00 0.00 57 1019.0
20260830182415 76 158 1.0 2.0 0.00 0.00 0.00 56 1019.0
20260830181916 77 158 0.0 0.0 0.00 0.00 0.00 54 1018.9
20260830181415 77 158 0.0 0.0 0.00 0.00 0.00 54 1018.9
20260830180917 77 148 0.0 0.0 0.00 0.00 0.00 54 1018.8
20260830180416 77 135 0.0 0.0 0.00 0.00 0.00 55 1018.8
20260830175915 77 158 0.0 0.0 0.00 0.00 0.00 55 1018.8
20260830175415 77 158 1.0 2.0 0.00 0.00 0.00 55 1018.6
20260830174916 78 140 3.0 5.0 0.00 0.00 0.00 54 1018.6
20260830174416 78 135 3.0 6.0 0.00 0.00 0.00 53 1018.5
20260830173915 78 152 3.0 6.0 0.00 0.00 0.00 54 1018.6
20260830173415 78 81 2.0 3.0 0.00 0.00 0.00 55 1018.6
20260830172916 79 135 2.0 3.0 0.00 0.00 0.00 53 1018.6
20260830172416 79 135 2.0 3.0 0.00 0.00 0.00 53 1018.5
20260830171915 80 158 1.0 3.0 0.00 0.00 0.00 52 1018.5
20260830171416 80 144 2.0 3.0 0.00 0.00 0.00 51 1018.4
20260830170915 80 151 2.0 3.0 0.00 0.00 0.00 49 1018.4
20260830170416 81 158 2.0 3.0 0.00 0.00 0.00 49 1018.5
20260830165916 81 141 2.0 3.0 0.00 0.00 0.00 47 1018.5
20260830165415 81 158 3.0 5.0 0.00 0.00 0.00 45 1018.5
20260830164916 82 135 1.0 2.0 0.00 0.00 0.00 42 1018.6
20260830164416 82 156 5.0 6.0 0.00 0.00 0.00 41 1018.5
20260830163915 82 148 3.0 6.0 0.00 0.00 0.00 41 1018.4
20260830163416 82 140 6.0 9.0 0.00 0.00 0.00 41 1018.4
20260830162916 82 135 5.0 8.0 0.00 0.00 0.00 41 1018.3
20260830162415 82 147 2.0 3.0 0.00 0.00 0.00 41 1018.3
20260830161914 82 149 3.0 6.0 0.00 0.00 0.00 40 1018.3
20260830161416 83 135 7.0 10.0 0.00 0.00 0.00 40 1018.3
20260830160915 83 135 5.0 8.0 0.00 0.00 0.00 39 1018.2
20260830160416 85 135 2.0 6.0 0.00 0.00 0.00 40 1018.2
20260830155414 84 112 1.0 2.0 0.00 0.00 0.00 40 1018.2
20260830154914 84 147 5.0 8.0 0.00 0.00 0.00 40 1018.3
20260830154414 84 112 6.0 10.0 0.00 0.00 0.00 40 1018.3
20260830153913 84 122 8.0 12.0 0.00 0.00 0.00 40 1018.1
20260830153412 85 158 6.0 10.0 0.00 0.00 0.00 40 1018.1
20260830152914 85 148 6.0 8.0 0.00 0.00 0.00 40 1018.1
20260830152413 85 116 7.0 10.0 0.00 0.00 0.00 39 1018.2
20260830151914 86 135 6.0 10.0 0.00 0.00 0.00 38 1018.2
20260830151414 85 158 5.0 7.0 0.00 0.00 0.00 39 1018.2